User: anonymous   Login
Location: Horowhenua
(40.7500°S, 175.3333°E)
Time: 18:44:51
(UTC+00:00)
Language:

Cosmos 2056 Rocket - Orbit

View from above orbital plane
View from above orbital plane
View from above satellite
View from above satellite

Ground track
Ground track

The orbit data is extracted from the following two-line orbital elements,

1 20433U 90004B   24141.17425389  .00000689  00000-0  24020-3 0  9990
2 20433  74.0382  31.9787 0041534 264.1653 264.4597 14.36769668798262
Epoch (UTC): 20 May 2024 04:10:55
Eccentricity: 0.0041534
inclination: 74.0382°
perigee height: 739 km
apogee height: 799 km
right ascension of ascending node: 31.9787°
argument of perigee: 264.1653°
revolutions per day: 14.36769668
mean anomaly at epoch: 264.4597°
orbit number at epoch: 79826

The dashed part of the orbit path shows where the satellite is in the earth's shadow,  

DLR